| time (UTC) | temp F | wind direction | speed MPH | gust MPH | rain 1hr in | rain 24hr in | rain mn in | humidity % | barometer mb |
| 20260509224025 | 65 | 296 | 6.0 | 17.0 | 0.00 | 0.00 | 0.00 | 28 | 1005.9 |
| 20260509223022 | 65 | 293 | 7.0 | 21.0 | 0.00 | 0.00 | 0.00 | 28 | 1005.8 |
| 20260509222039 | 66 | 295 | 5.0 | 15.0 | 0.00 | 0.00 | 0.00 | 30 | 1005.7 |
| 20260509221035 | 65 | 297 | 5.0 | 14.0 | 0.00 | 0.00 | 0.00 | 32 | 1005.6 |
| 20260509220033 | 65 | 309 | 6.0 | 17.0 | 0.00 | 0.00 | 0.00 | 32 | 1005.4 |
| 20260509215028 | 63 | 313 | 5.0 | 16.0 | 0.00 | 0.00 | 0.00 | 34 | 1005.5 |
| 20260509214025 | 63 | 320 | 6.0 | 21.0 | 0.00 | 0.00 | 0.00 | 34 | 1005.2 |
| 20260509213022 | 64 | 311 | 6.0 | 17.0 | 0.00 | 0.00 | 0.00 | 35 | 1005.1 |
| 20260509212038 | 65 | 304 | 5.0 | 21.0 | 0.00 | 0.00 | 0.00 | 35 | 1005.2 |
| 20260509211056 | 64 | 315 | 7.0 | 24.0 | 0.00 | 0.00 | 0.00 | 34 | 1005.0 |
| 20260509210032 | 66 | 310 | 6.0 | 21.0 | 0.00 | 0.00 | 0.00 | 32 | 1004.8 |
| 20260509205028 | 65 | 294 | 6.0 | 18.0 | 0.00 | 0.00 | 0.00 | 34 | 1004.6 |
| 20260509204025 | 66 | 298 | 6.0 | 19.0 | 0.00 | 0.00 | 0.00 | 35 | 1004.5 |
| 20260509203022 | 67 | 282 | 6.0 | 14.0 | 0.00 | 0.00 | 0.00 | 35 | 1004.4 |
| 20260509202018 | 66 | 297 | 5.0 | 16.0 | 0.00 | 0.00 | 0.00 | 36 | 1004.2 |
| 20260509201035 | 66 | 306 | 7.0 | 24.0 | 0.00 | 0.00 | 0.00 | 37 | 1004.2 |
| 20260509200031 | 64 | 305 | 7.0 | 18.0 | 0.00 | 0.00 | 0.00 | 38 | 1004.0 |
| 20260509195030 | 65 | 308 | 7.0 | 25.0 | 0.00 | 0.00 | 0.00 | 40 | 1003.9 |
| 20260509194025 | 65 | 314 | 5.0 | 18.0 | 0.00 | 0.00 | 0.00 | 41 | 1003.9 |
| 20260509193022 | 66 | 317 | 6.0 | 15.0 | 0.00 | 0.00 | 0.00 | 41 | 1003.9 |
| 20260509192059 | 66 | 322 | 7.0 | 18.0 | 0.00 | 0.00 | 0.00 | 40 | 1003.8 |
| 20260509191035 | 68 | 310 | 7.0 | 18.0 | 0.00 | 0.00 | 0.00 | 35 | 1003.6 |
| 20260509190049 | 68 | 295 | 6.0 | 17.0 | 0.00 | 0.00 | 0.00 | 33 | 1003.3 |
| 20260509185046 | 68 | 294 | 6.0 | 16.0 | 0.00 | 0.00 | 0.00 | 32 | 1003.1 |
| 20260509184022 | 67 | 283 | 5.0 | 25.0 | 0.00 | 0.00 | 0.00 | 31 | 1002.9 |
| 20260509183019 | 68 | 296 | 5.0 | 16.0 | 0.00 | 0.00 | 0.00 | 31 | 1002.9 |
| 20260509182016 | 68 | 295 | 5.0 | 15.0 | 0.00 | 0.00 | 0.00 | 31 | 1002.9 |
| 20260509181032 | 68 | 286 | 5.0 | 11.0 | 0.00 | 0.00 | 0.00 | 31 | 1002.9 |
| 20260509180029 | 67 | 296 | 3.0 | 11.0 | 0.00 | 0.00 | 0.00 | 33 | 1002.9 |
| 20260509174837 | 66 | 359 | 8.0 | 10.0 | 0.00 | 0.00 | 0.00 | 33 | 1002.8 |
| 20260509174020 | 66 | 285 | 5.0 | 14.0 | 0.00 | 0.00 | 0.00 | 32 | 1002.9 |
| 20260509173016 | 64 | 286 | 4.0 | 11.0 | 0.00 | 0.00 | 0.00 | 35 | 1002.9 |
| 20260509172033 | 64 | 260 | 5.0 | 11.0 | 0.00 | 0.00 | 0.00 | 35 | 1002.8 |
| 20260509171030 | 64 | 272 | 4.0 | 13.0 | 0.00 | 0.00 | 0.00 | 34 | 1002.8 |
| 20260509170027 | 64 | 259 | 5.0 | 14.0 | 0.00 | 0.00 | 0.00 | 35 | 1002.8 |
| 20260509165043 | 64 | 286 | 4.0 | 13.0 | 0.00 | 0.00 | 0.00 | 36 | 1002.8 |
| 20260509164019 | 63 | 272 | 4.0 | 9.0 | 0.00 | 0.00 | 0.00 | 37 | 1002.8 |
| 20260509163016 | 63 | 307 | 3.0 | 8.0 | 0.00 | 0.00 | 0.00 | 37 | 1002.8 |
| 20260509162033 | 63 | 312 | 3.0 | 11.0 | 0.00 | 0.00 | 0.00 | 37 | 1002.8 |
| 20260509161029 | 62 | 308 | 3.0 | 8.0 | 0.00 | 0.00 | 0.00 | 38 | 1002.7 |
| 20260509160026 | 62 | 301 | 3.0 | 13.0 | 0.00 | 0.00 | 0.00 | 38 | 1002.8 |
| 20260509155042 | 61 | 316 | 3.0 | 8.0 | 0.00 | 0.00 | 0.00 | 39 | 1002.7 |
| 20260509154020 | 61 | 278 | 4.0 | 17.0 | 0.00 | 0.00 | 0.00 | 38 | 1002.5 |
| 20260509153015 | 62 | 307 | 4.0 | 15.0 | 0.00 | 0.00 | 0.00 | 38 | 1002.3 |
| 20260509152032 | 61 | 306 | 5.0 | 11.0 | 0.00 | 0.00 | 0.00 | 39 | 1002.3 |
| 20260509151029 | 58 | 321 | 3.0 | 9.0 | 0.00 | 0.00 | 0.00 | 41 | 1002.3 |
| 20260509150025 | 58 | 312 | 3.0 | 8.0 | 0.00 | 0.00 | 0.00 | 43 | 1002.2 |
| 20260509145018 | 57 | 317 | 3.0 | 8.0 | 0.00 | 0.00 | 0.00 | 44 | 1002.1 |
| 20260509144033 | 56 | 312 | 3.0 | 9.0 | 0.00 | 0.00 | 0.00 | 45 | 1002.1 |
| 20260509143025 | 55 | 301 | 2.0 | 8.0 | 0.00 | 0.00 | 0.00 | 46 | 1002.2 |
| 20260509142022 | 55 | 295 | 2.0 | 7.0 | 0.00 | 0.00 | 0.00 | 46 | 1002.4 |
| 20260509141019 | 56 | 282 | 3.0 | 8.0 | 0.00 | 0.00 | 0.00 | 46 | 1002.3 |
| 20260509140055 | 56 | 285 | 3.0 | 7.0 | 0.00 | 0.00 | 0.00 | 46 | 1002.1 |
| 20260509135032 | 56 | 278 | 3.0 | 9.0 | 0.00 | 0.00 | 0.00 | 45 | 1002.0 |
| 20260509134028 | 56 | 280 | 3.0 | 10.0 | 0.00 | 0.00 | 0.00 | 46 | 1002.0 |
| 20260509133044 | 56 | 270 | 4.0 | 9.0 | 0.00 | 0.00 | 0.00 | 45 | 1001.8 |
| 20260509132041 | 57 | 280 | 3.0 | 10.0 | 0.00 | 0.00 | 0.00 | 45 | 1001.3 |
| 20260509131018 | 56 | 271 | 4.0 | 14.0 | 0.00 | 0.00 | 0.00 | 45 | 1001.1 |
| 20260509130034 | 56 | 273 | 4.0 | 9.0 | 0.00 | 0.00 | 0.00 | 46 | 1000.8 |
| 20260509125031 | 56 | 292 | 3.0 | 13.0 | 0.00 | 0.00 | 0.00 | 47 | 1000.9 |
| 20260509124027 | 56 | 278 | 4.0 | 10.0 | 0.00 | 0.00 | 0.00 | 48 | 1000.7 |
| 20260509123024 | 56 | 281 | 3.0 | 9.0 | 0.00 | 0.00 | 0.00 | 48 | 1000.4 |
| 20260509122020 | 56 | 282 | 5.0 | 13.0 | 0.00 | 0.00 | 0.00 | 48 | 1000.3 |
| 20260509121017 | 56 | 273 | 4.0 | 11.0 | 0.00 | 0.00 | 0.00 | 50 | 1000.2 |
| 20260509120033 | 56 | 282 | 5.0 | 11.0 | 0.00 | 0.00 | 0.00 | 51 | 1000.0 |
| 20260509115030 | 56 | 281 | 5.0 | 14.0 | 0.00 | 0.00 | 0.00 | 54 | 1000.1 |
| 20260509114048 | 55 | 283 | 5.0 | 10.0 | 0.00 | 0.00 | 0.00 | 58 | 999.9 |
| 20260509113023 | 55 | 280 | 4.0 | 11.0 | 0.00 | 0.00 | 0.00 | 60 | 999.8 |
| 20260509112040 | 55 | 271 | 5.0 | 11.0 | 0.00 | 0.00 | 0.00 | 63 | 999.6 |
| 20260509111016 | 55 | 269 | 5.0 | 10.0 | 0.00 | 0.00 | 0.00 | 65 | 999.6 |
| 20260509110034 | 55 | 271 | 5.0 | 13.0 | 0.00 | 0.00 | 0.00 | 68 | 999.6 |
| 20260509105049 | 54 | 269 | 5.0 | 10.0 | 0.00 | 0.00 | 0.00 | 70 | 999.5 |
| 20260509104026 | 54 | 265 | 4.0 | 9.0 | 0.00 | 0.00 | 0.00 | 73 | 999.4 |
| 20260509103022 | 53 | 259 | 4.0 | 9.0 | 0.00 | 0.00 | 0.00 | 74 | 999.3 |
| 20260509102020 | 53 | 260 | 3.0 | 7.0 | 0.00 | 0.00 | 0.00 | 74 | 999.3 |
| 20260509101038 | 53 | 265 | 3.0 | 10.0 | 0.00 | 0.00 | 0.00 | 75 | 999.3 |
| 20260509100033 | 52 | 262 | 2.0 | 6.0 | 0.00 | 0.00 | 0.00 | 75 | 999.3 |
| 20260509095029 | 52 | 261 | 2.0 | 6.0 | 0.00 | 0.00 | 0.00 | 75 | 999.3 |
| 20260509094025 | 52 | 260 | 3.0 | 7.0 | 0.00 | 0.00 | 0.00 | 75 | 999.5 |
| 20260509093022 | 51 | 258 | 3.0 | 6.0 | 0.00 | 0.00 | 0.00 | 76 | 999.7 |
| 20260509092018 | 50 | 246 | 2.0 | 7.0 | 0.00 | 0.00 | 0.00 | 76 | 999.7 |
| 20260509091035 | 50 | 229 | 2.0 | 6.0 | 0.00 | 0.00 | 0.00 | 76 | 999.7 |
| 20260509090031 | 49 | 203 | 1.0 | 4.0 | 0.00 | 0.00 | 0.00 | 76 | 999.7 |
| 20260509085028 | 50 | 213 | 2.0 | 6.0 | 0.00 | 0.00 | 0.00 | 76 | 999.7 |
| 20260509084026 | 50 | 226 | 2.0 | 6.0 | 0.00 | 0.00 | 0.00 | 76 | 999.7 |
| 20260509083020 | 50 | 215 | 1.0 | 4.0 | 0.00 | 0.00 | 0.00 | 76 | 999.7 |
| 20260509082017 | 50 | 200 | 2.0 | 8.0 | 0.00 | 0.00 | 0.00 | 75 | 999.8 |
| 20260509081034 | 50 | 184 | 2.0 | 4.0 | 0.00 | 0.00 | 0.00 | 75 | 999.7 |
| 20260509080152 | 50 | 184 | 2.0 | 7.0 | 0.00 | 0.00 | 0.00 | 74 | 999.8 |
| 20260509075027 | 50 | 190 | 2.0 | 4.0 | 0.00 | 0.00 | 0.00 | 74 | 999.9 |
| 20260509074023 | 51 | 221 | 2.0 | 4.0 | 0.00 | 0.00 | 0.00 | 73 | 1000.0 |
| 20260509073019 | 51 | 205 | 3.0 | 6.0 | 0.00 | 0.00 | 0.00 | 73 | 1000.1 |
| 20260509072035 | 51 | 223 | 3.0 | 9.0 | 0.00 | 0.00 | 0.00 | 74 | 1000.3 |
| 20260509071030 | 49 | 223 | 2.0 | 6.0 | 0.00 | 0.00 | 0.00 | 77 | 1000.6 |
| 20260509070025 | 49 | 179 | 2.0 | 9.0 | 0.00 | 0.00 | 0.00 | 77 | 1000.7 |
| 20260509065019 | 51 | 175 | 2.0 | 6.0 | 0.00 | 0.00 | 0.00 | 73 | 1000.8 |
| 20260509064036 | 51 | 195 | 3.0 | 8.0 | 0.00 | 0.00 | 0.00 | 73 | 1001.1 |
| 20260509063030 | 50 | 203 | 2.0 | 6.0 | 0.00 | 0.00 | 0.00 | 74 | 1001.4 |
| 20260509062026 | 50 | 196 | 3.0 | 7.0 | 0.00 | 0.00 | 0.00 | 76 | 1001.5 |
| 20260509061043 | 49 | 200 | 2.0 | 6.0 | 0.00 | 0.00 | 0.00 | 77 | 1001.8 |
| 20260509060039 | 49 | 202 | 2.0 | 7.0 | 0.00 | 0.00 | 0.00 | 78 | 1001.9 |
| 20260509055056 | 48 | 202 | 2.0 | 7.0 | 0.00 | 0.00 | 0.00 | 78 | 1002.1 |
| 20260509054051 | 47 | 189 | 2.0 | 7.0 | 0.00 | 0.00 | 0.00 | 80 | 1002.4 |
| 20260509053028 | 46 | 208 | 0.0 | 2.0 | 0.00 | 0.00 | 0.00 | 83 | 1002.7 |
| 20260509052024 | 46 | 131 | 1.0 | 4.0 | 0.00 | 0.00 | 0.00 | 83 | 1002.5 |
| 20260509051021 | 47 | 156 | 2.0 | 4.0 | 0.00 | 0.00 | 0.00 | 81 | 1002.7 |
| 20260509050018 | 48 | 137 | 2.0 | 7.0 | 0.00 | 0.00 | 0.00 | 78 | 1002.8 |
| 20260509045034 | 50 | 132 | 2.0 | 4.0 | 0.00 | 0.00 | 0.00 | 73 | 1003.0 |
| 20260509044031 | 51 | 186 | 1.0 | 9.0 | 0.00 | 0.00 | 0.00 | 69 | 1003.3 |
| 20260509043029 | 51 | 189 | 1.0 | 6.0 | 0.00 | 0.00 | 0.00 | 68 | 1003.4 |
| 20260509042024 | 52 | 193 | 3.0 | 8.0 | 0.00 | 0.00 | 0.00 | 67 | 1003.4 |
| 20260509041021 | 52 | 201 | 3.0 | 10.0 | 0.00 | 0.00 | 0.00 | 67 | 1003.5 |
| 20260509040017 | 53 | 204 | 4.0 | 11.0 | 0.00 | 0.00 | 0.00 | 68 | 1003.6 |
| 20260509035054 | 53 | 212 | 4.0 | 13.0 | 0.00 | 0.00 | 0.00 | 68 | 1003.6 |
| 20260509034031 | 53 | 212 | 4.0 | 10.0 | 0.00 | 0.00 | 0.00 | 67 | 1003.7 |
| 20260509033027 | 52 | 194 | 4.0 | 13.0 | 0.00 | 0.00 | 0.00 | 68 | 1003.8 |
| 20260509032024 | 52 | 196 | 5.0 | 14.0 | 0.00 | 0.00 | 0.00 | 69 | 1003.9 |
| 20260509031021 | 52 | 216 | 4.0 | 11.0 | 0.00 | 0.00 | 0.00 | 69 | 1004.1 |
| 20260509030017 | 52 | 195 | 3.0 | 9.0 | 0.00 | 0.00 | 0.00 | 69 | 1004.3 |
| 20260509025036 | 52 | 208 | 3.0 | 9.0 | 0.00 | 0.00 | 0.00 | 68 | 1004.5 |
| 20260509024031 | 52 | 226 | 4.0 | 21.0 | 0.00 | 0.00 | 0.00 | 66 | 1004.5 |
| 20260509023028 | 52 | 217 | 4.0 | 10.0 | 0.00 | 0.00 | 0.00 | 66 | 1004.5 |
| 20260509022025 | 52 | 221 | 4.0 | 9.0 | 0.00 | 0.00 | 0.00 | 65 | 1004.5 |
| 20260509021021 | 52 | 212 | 5.0 | 16.0 | 0.00 | 0.00 | 0.00 | 64 | 1004.5 |
| 20260509020019 | 52 | 213 | 5.0 | 14.0 | 0.00 | 0.00 | 0.00 | 63 | 1004.4 |
| 20260509015034 | 51 | 211 | 4.0 | 14.0 | 0.00 | 0.00 | 0.00 | 61 | 1004.2 |
| 20260509014032 | 51 | 205 | 5.0 | 14.0 | 0.00 | 0.00 | 0.00 | 59 | 1004.0 |
| 20260509013028 | 51 | 185 | 4.0 | 11.0 | 0.00 | 0.00 | 0.00 | 53 | 1004.2 |
| 20260509012024 | 51 | 202 | 4.0 | 13.0 | 0.00 | 0.00 | 0.00 | 50 | 1004.2 |
| 20260509011041 | 51 | 195 | 5.0 | 16.0 | 0.00 | 0.00 | 0.00 | 46 | 1004.2 |
| 20260509010018 | 52 | 200 | 4.0 | 17.0 | 0.00 | 0.00 | 0.00 | 43 | 1004.2 |
| 20260509005036 | 52 | 208 | 5.0 | 14.0 | 0.00 | 0.00 | 0.00 | 41 | 1004.1 |
| 20260509004032 | 52 | 201 | 6.0 | 16.0 | 0.00 | 0.00 | 0.00 | 40 | 1004.3 |
| 20260509003028 | 53 | 201 | 4.0 | 14.0 | 0.00 | 0.00 | 0.00 | 40 | 1004.4 |
| 20260509002045 | 53 | 188 | 4.0 | 14.0 | 0.00 | 0.00 | 0.00 | 37 | 1004.5 |
| 20260509001021 | 54 | 200 | 6.0 | 15.0 | 0.00 | 0.00 | 0.00 | 36 | 1004.4 |
| 20260509000018 | 54 | 197 | 6.0 | 17.0 | 0.00 | 0.00 | 0.00 | 36 | 1004.3 |
| 20260508235035 | 55 | 196 | 6.0 | 16.0 | 0.00 | 0.00 | 0.00 | 34 | 1004.5 |
| 20260508234113 | 56 | 192 | 5.0 | 17.0 | 0.00 | 0.00 | 0.00 | 33 | 1004.6 |
| 20260508233028 | 56 | 186 | 5.0 | 13.0 | 0.00 | 0.00 | 0.00 | 32 | 1004.6 |
| 20260508232025 | 56 | 200 | 5.0 | 15.0 | 0.00 | 0.00 | 0.00 | 34 | 1004.7 |
| 20260508231041 | 57 | 192 | 4.0 | 10.0 | 0.00 | 0.00 | 0.00 | 34 | 1004.9 |
| 20260508230018 | 58 | 192 | 5.0 | 10.0 | 0.00 | 0.00 | 0.00 | 33 | 1004.9 |
| 20260508225035 | 59 | 185 | 6.0 | 13.0 | 0.00 | 0.00 | 0.00 | 32 | 1005.0 |